DW5621 Weather Reports


Display with metric or nautical units.
time (UTC)temp
F
wind
direction
speed
MPH
gust
MPH
rain 1hr
in
rain 24hr
in
rain mn
in
humidity
%
barometer
mb
20260505193635 56 150 1.0 7.0 0.00 0.00 0.00 70 1011.7
20260505192736 56 139 1.0 5.0 0.00 0.00 0.00 69 1011.5
20260505191835 56 129 1.0 5.0 0.00 0.00 0.00 68 1011.5
20260505190936 57 147 1.0 7.0 0.00 0.00 0.00 66 1011.5
20260505190036 57 136 2.0 7.0 0.00 0.00 0.00 64 1011.4
20260505185436 57 136 2.0 7.0 0.00 0.00 0.00 64 1011.3
20260505184536 57 148 1.0 10.0 0.00 0.00 0.00 63 1011.2
20260505183636 57 151 2.0 10.0 0.00 0.00 0.00 62 1011.1
20260505182757 57 138 1.0 6.0 0.00 0.00 0.00 62 1010.9
20260505181836 58 139 1.0 5.0 0.00 0.00 0.00 61 1010.9
20260505180957 58 126 1.0 5.0 0.00 0.00 0.00 61 1010.9
20260505180057 58 111 1.0 6.0 0.00 0.00 0.00 61 1011.0
20260505175435 58 119 2.0 8.0 0.00 0.00 0.00 61 1011.0
20260505174535 58 150 2.0 10.0 0.00 0.00 0.00 61 1010.9
20260505173657 58 145 2.0 10.0 0.00 0.00 0.00 60 1011.0
20260505172757 59 140 2.0 10.0 0.00 0.00 0.00 60 1011.0
20260505171857 59 145 2.0 10.0 0.00 0.00 0.00 59 1011.0
20260505170935 59 156 3.0 10.0 0.00 0.00 0.00 59 1011.1
20260505170035 59 162 2.0 8.0 0.00 0.00 0.00 58 1011.2
20260505165456 59 154 2.0 8.0 0.00 0.00 0.00 58 1011.3
20260505164535 59 145 2.0 8.0 0.00 0.00 0.00 58 1011.2
20260505163635 59 153 3.0 10.0 0.00 0.00 0.00 58 1011.1
20260505162735 60 154 3.0 11.0 0.00 0.00 0.00 56 1011.3
20260505161835 60 161 4.0 11.0 0.00 0.00 0.00 55 1011.2
20260505160935 60 160 4.0 11.0 0.00 0.00 0.00 53 1011.1
20260505152735 61 155 3.0 8.0 0.00 0.00 0.00 51 1011.2
20260505151835 62 107 2.0 8.0 0.00 0.00 0.00 51 1011.1
20260505150935 62 44 1.0 6.0 0.00 0.00 0.00 50 1011.1
20260505124535 62 15 2.0 11.0 0.00 0.00 0.00 52 1011.7
20260505123635 62 39 2.0 11.0 0.00 0.00 0.00 50 1011.7
20260505122735 62 33 2.0 11.0 0.00 0.00 0.00 50 1011.8
20260505121835 62 14 3.0 12.0 0.00 0.00 0.00 51 1011.8
20260505120935 62 15 2.0 12.0 0.00 0.00 0.00 49 1011.8
20260505120035 62 44 2.0 12.0 0.00 0.00 0.00 52 1011.8
20260505115435 62 53 2.0 11.0 0.00 0.00 0.00 52 1011.9
20260505114535 62 49 3.0 12.0 0.00 0.00 0.00 50 1011.9
20260505113635 62 36 3.0 12.0 0.00 0.00 0.00 50 1012.0
20260505112735 61 24 3.0 12.0 0.00 0.00 0.00 53 1011.9
20260505111835 61 7 2.0 12.0 0.00 0.00 0.00 55 1012.1
20260505110935 60 24 3.0 12.0 0.00 0.00 0.00 56 1012.0
20260505101835 61 37 2.0 10.0 0.00 0.00 0.00 58 1012.5
20260505100935 61 20 2.0 10.0 0.00 0.00 0.00 58 1012.5
20260505100035 61 42 3.0 8.0 0.00 0.00 0.00 60 1012.6
20260505095435 60 48 2.0 8.0 0.00 0.00 0.00 59 1012.8
20260505094535 59 54 2.0 13.0 0.00 0.00 0.00 61 1012.7
20260505093635 59 61 3.0 13.0 0.00 0.00 0.00 63 1012.7
20260505092735 58 36 2.0 13.0 0.00 0.00 0.00 64 1012.7
20260505091835 58 26 2.0 7.0 0.00 0.00 0.00 68 1012.9
20260505090935 57 356 2.0 8.0 0.00 0.00 0.00 70 1013.0
20260505090035 56 38 3.0 8.0 0.00 0.00 0.00 68 1012.9
20260505085435 56 34 2.0 8.0 0.00 0.00 0.00 69 1013.0
20260505084535 55 51 2.0 8.0 0.00 0.00 0.00 73 1013.0
20260505083656 55 40 2.0 7.0 0.00 0.00 0.00 74 1013.1
20260505082735 54 7 2.0 7.0 0.00 0.00 0.00 75 1013.1
20260505081835 54 359 2.0 8.0 0.00 0.00 0.00 76 1013.0
20260505080935 54 9 2.0 11.0 0.00 0.00 0.00 76 1013.0
20260505080035 54 35 2.0 8.0 0.00 0.00 0.00 77 1013.0
20260505075435 54 34 2.0 10.0 0.00 0.00 0.00 77 1012.9
20260505074535 53 15 2.0 8.0 0.00 0.00 0.00 78 1012.8
20260505073635 53 14 2.0 7.0 0.00 0.00 0.00 80 1012.8
20260505072735 53 9 2.0 6.0 0.00 0.00 0.00 81 1013.0
20260505071835 53 12 2.0 5.0 0.00 0.00 0.00 81 1013.1
20260505070956 53 25 2.0 8.0 0.00 0.00 0.00 81 1013.0
20260505070035 52 27 1.0 6.0 0.00 0.00 0.00 82 1013.1
20260505065435 52 27 1.0 6.0 0.00 0.00 0.00 82 1013.2
20260505064535 52 26 2.0 6.0 0.00 0.00 0.00 82 1013.2
20260505063635 52 26 2.0 5.0 0.00 0.00 0.00 82 1013.3
20260505062735 52 42 1.0 5.0 0.00 0.00 0.00 83 1013.3
20260505061856 52 39 1.0 5.0 0.00 0.00 0.00 84 1013.2
20260505060935 51 47 1.0 5.0 0.00 0.00 0.00 85 1013.1
20260505060056 51 27 1.0 5.0 0.00 0.00 0.00 85 1013.0
20260505055435 51 26 1.0 4.0 0.00 0.00 0.00 85 1013.1
20260505054535 51 41 0.0 2.0 0.00 0.00 0.00 85 1013.1
20260505053635 51 48 0.0 2.0 0.00 0.00 0.00 84 1013.1
20260505052734 51 48 0.0 2.0 0.00 0.00 0.00 84 1013.2
20260505051834 51 56 0.0 4.0 0.00 0.00 0.00 84 1013.2
20260505050934 51 61 0.0 5.0 0.00 0.00 0.00 84 1013.2
20260505040934 52 57 1.0 5.0 0.00 0.00 0.00 84 1013.2
20260505040034 52 56 1.0 5.0 0.00 0.00 0.00 84 1013.3
20260505035435 52 72 1.0 5.0 0.00 0.00 0.00 84 1013.2
20260505034534 52 77 1.0 5.0 0.00 0.00 0.00 84 1013.3
20260505033635 52 71 0.0 4.0 0.00 0.00 0.00 85 1013.3
20260505032734 52 76 0.0 5.0 0.00 0.00 0.00 85 1013.4
20260505031835 52 74 1.0 5.0 0.00 0.00 0.00 85 1013.4
20260505030934 52 83 0.0 4.0 0.00 0.00 0.00 86 1013.4
20260505030035 52 67 1.0 4.0 0.00 0.00 0.00 86 1013.3
20260505025434 52 43 0.0 2.0 0.00 0.00 0.00 86 1013.4
20260505024534 52 36 0.0 4.0 0.00 0.00 0.00 87 1013.5
20260505023655 52 98 0.0 4.0 0.00 0.00 0.00 87 1013.5
20260505022734 52 121 0.0 4.0 0.00 0.00 0.00 87 1013.5
20260505021834 52 132 0.0 4.0 0.00 0.00 0.00 87 1013.4
20260505020955 53 116 0.0 4.0 0.00 0.00 0.00 87 1013.4
20260505020034 53 74 1.0 4.0 0.00 0.00 0.00 87 1013.4
20260505015434 53 104 1.0 7.0 0.00 0.00 0.00 87 1013.3
20260505014534 53 145 1.0 6.0 0.00 0.00 0.00 87 1013.6
20260505013634 53 141 1.0 7.0 0.00 0.00 0.00 87 1013.6
20260505012734 53 152 1.0 7.0 0.00 0.00 0.00 87 1013.9
20260505011834 53 157 2.0 7.0 0.00 0.00 0.00 87 1013.9
20260505010955 53 161 2.0 7.0 0.00 0.00 0.00 87 1014.0
20260505010034 53 147 1.0 6.0 0.00 0.00 0.00 87 1014.0
20260505005455 53 143 1.0 4.0 0.00 0.00 0.00 87 1013.9
20260505004555 53 152 0.0 4.0 0.00 0.00 0.00 87 1013.9
20260505003634 53 153 1.0 4.0 0.00 0.00 0.00 86 1014.1
20260505002734 54 138 0.0 2.0 0.00 0.00 0.00 86 1014.2
20260505001834 54 127 0.0 2.0 0.00 0.00 0.00 85 1014.2
20260505000934 54 0 0.0 10.0 0.00 0.00 0.00 85 1014.1
20260505000034 54 89 1.0 10.0 0.00 0.00 0.00 84 1014.3
20260504235434 54 115 1.0 5.0 0.00 0.00 0.00 83 1014.3
20260504234534 54 100 1.0 5.0 0.00 0.00 0.00 83 1014.3
20260504233634 54 160 1.0 8.0 0.00 0.00 0.00 83 1014.5
20260504232734 55 142 2.0 8.0 0.00 0.00 0.00 82 1014.4
20260504231834 55 137 2.0 7.0 0.00 0.00 0.00 82 1014.5
20260504230934 55 141 1.0 5.0 0.00 0.00 0.00 81 1014.5
20260504230056 56 127 2.0 11.0 0.00 0.00 0.00 80 1014.5
20260504225434 56 65 1.0 5.0 0.00 0.00 0.00 79 1014.4
20260504224534 56 28 2.0 7.0 0.00 0.00 0.00 78 1014.2
20260504223634 56 31 2.0 8.0 0.00 0.00 0.00 77 1014.4
20260504222734 56 39 1.0 5.0 0.00 0.00 0.00 77 1014.4
20260504221834 56 64 1.0 7.0 0.00 0.00 0.00 77 1014.4
20260504220934 56 41 2.0 8.0 0.00 0.00 0.00 77 1014.5
20260504220034 56 34 1.0 10.0 0.00 0.00 0.00 77 1014.7
20260504215434 56 35 1.0 10.0 0.00 0.00 0.00 77 1014.6
20260504214534 56 31 2.0 11.0 0.00 0.00 0.00 77 1014.5
20260504213634 56 17 2.0 11.0 0.00 0.00 0.00 77 1014.5
20260504212734 57 14 2.0 11.0 0.00 0.00 0.00 77 1014.4
20260504211834 57 12 2.0 6.0 0.00 0.00 0.00 78 1014.5
20260504210934 57 6 2.0 6.0 0.00 0.00 0.00 78 1014.5
20260504210034 57 8 2.0 6.0 0.00 0.00 0.00 80 1014.5
20260504205434 57 136 0.0 4.0 0.00 0.00 0.00 82 1014.6
20260504204534 57 145 0.0 2.0 0.00 0.00 0.00 81 1014.5
20260504203634 57 145 0.0 2.0 0.00 0.00 0.00 81 1014.5
20260504202734 57 145 0.0 2.0 0.00 0.00 0.00 81 1014.4
20260504201834 57 145 0.0 5.0 0.00 0.00 0.00 81 1014.5
20260504200934 58 153 1.0 7.0 0.00 0.00 0.00 81 1014.4
20260504200034 58 146 0.0 5.0 0.00 0.00 0.00 80 1014.4
20260504195434 58 147 1.0 5.0 0.00 0.00 0.00 80 1014.2
20260504194534 58 154 1.0 5.0 0.00 0.00 0.00 80 1014.2
20260504193655 58 133 1.0 6.0 0.00 0.00 0.00 79 1014.2